This is the latest recevied weather packets stored in our database for station/object IK2YOU-3. If no packets are shown the sender has not sent any weather packets the latest 10 day(s).
| Time | Temp. | Humidity | Pressure | Rain* | Wind** | Luminosity | Snow |
|---|---|---|---|---|---|---|---|
| 1778233444 | 20° C | 74% | 1013.7 hPa | 0 mm | - | 265 W/m² | - |
| 1778232845 | 19.44° C | 75% | 1013.7 hPa | 0 mm | - | 314 W/m² | - |
| 1778232244 | 18.89° C | 76% | 1013.7 hPa | 0 mm | - | 220 W/m² | - |
| 1778231773 | 18.89° C | 77% | 1013.8 hPa | 0 mm | - | 138 W/m² | - |
| 1778231044 | 18.33° C | 77% | 1013.8 hPa | 0 mm | - | 177 W/m² | - |
| 1778230442 | 18.89° C | 76% | 1013.9 hPa | 0 mm | - | 145 W/m² | - |
| 1778229838 | 18.89° C | 76% | 1013.8 hPa | 0 mm | - | 182 W/m² | - |
| 1778229366 | 18.89° C | 77% | 1013.7 hPa | 0 mm | - | 201 W/m² | - |
| 1778228639 | 18.89° C | 77% | 1013.7 hPa | 0 mm | - | 166 W/m² | - |
| 1778228040 | 18.33° C | 76% | 1013.6 hPa | 0 mm | - | 312 W/m² | - |
| 1778227440 | 18.33° C | 79% | 1013.5 hPa | 0 mm | - | 363 W/m² | - |
| 1778226840 | 17.22° C | 81% | 1013.4 hPa | 0 mm | - | 216 W/m² | - |
| 1778226242 | 16.67° C | 82% | 1013.3 hPa | 0 mm | - | 162 W/m² | - |
| 1778225641 | 16.67° C | 84% | 1013.4 hPa | 0 mm | - | 162 W/m² | - |
| 1778225168 | 16.11° C | 85% | 1013.4 hPa | 0 mm | - | 136 W/m² | - |
| 1778224440 | 16.11° C | 85% | 1013.3 hPa | 0 mm | - | 113 W/m² | - |
| 1778223838 | 16.11° C | 85% | 1013.4 hPa | 0 mm | - | 88 W/m² | - |
| 1778223236 | 15.56° C | 85% | 1013.3 hPa | 0 mm | - | 105 W/m² | - |
| 1778222636 | 15.56° C | 85% | 1013.3 hPa | 0 mm | - | 97 W/m² | - |
| 1778222036 | 15° C | 85% | 1013.2 hPa | 0 mm | - | 73 W/m² | - |
| 1778221434 | 15° C | 85% | 1013.1 hPa | 0 mm | - | 59 W/m² | - |
| 1778220964 | 15° C | 85% | 1013.1 hPa | 0 mm | - | 44 W/m² | - |
| 1778220235 | 15° C | 85% | 1013 hPa | 0 mm | - | 65 W/m² | - |
| 1778219761 | 15° C | 85% | 1013 hPa | 0 mm | - | 50 W/m² | - |
| 1778219032 | 14.44° C | 85% | 1012.9 hPa | 0 mm | - | 50 W/m² | - |
* Rain latest hour (hover to see other rain measurements)
** Current wind speed in m/s (hover to see current wind gust speed)